Find Starlink 1068

NORAD ID: 44772 Int'l Des: 2019-074 Owner: SPXS Country: US Constellation: starlink operational
LEOCIRCULAR

現在のビュー

3D地球を読み込み中...

About Starlink 1068

Starlink 1068 (NORAD 44772) is a starlink constellation satellite (v1.0) launched Nov 11, 2019 by SPXS of US. It operates in LEO, CIRCULAR orbit with a mass of 260.00 kg.

次回通過

Passes for default location (London). Set your location on the main map for personalized predictions.

高度履歴

Loading altitude history...

軌道要素

1 44772U 19074BM 26238.16668980 .00159148 20504-4 48877-3 0 9990
2 44772 53.0339 54.7834 0001525 208.2945 123.7647 15.91574916 5950
Epoch: Aug 26, 2026 • Age: 6 hours

現在のステータス

高度 315.5 km
遠地点 / 近地点 N/A
速度 7.72 km/s
衛星直下点 -53.10°S, 162.08°W
打ち上げ日 Nov 11, 2019
運用期間 6.7 years
タイプ internet

技術仕様

分類 Payload
質量 260.00 kg
乾燥質量 248.00 kg
総質量 260.00 kg
長さ 0.20 m
直径 2.80 m
スパン 9.00 m
形状 Box + pan
製造者 SPXS
バスタイプ Starlink
フェーズステータス In Orbit
所有者/国 SPXS/US

Most Searched